Startseite
Über Mich
AHP4
Galerie
Sehschlangen
Tourenbuch
Bookmarks
Elektronik
Bewertung
Geschichten
[Tagesmessung] [Jahreswerte] [Information]

Messwerte vom 06.06.2020

Die letzten Messwerte von 13:49:25 Uhr:
KategorieMesswert
Temperatur [°C]17
Luftdruck [mBar]985
Sonneneinstrahlung232
Wind [km/h]10
Niederschlag [l/m²]0

Diagramme
Messwerte vom 06.06.2020
Tagesaggregation
KategorieMinimumMaximumSchnittSumme
Temperatur [°C]91812.3718
Luftdruck [mBar]980986983.6751
Sonneneinstrahlung237125.6029
Wind [km/h]27
Niederschlag [l/m²]0
Einordnung alsVegetationstag

Messungen an benachbarten Tagen: Zur Jahresaggregation 2020
Tabelle aller Messwerte
UhrzeitTemperatur [°C]Luftdruck [mBar]SonneWind [km/h]Regen [l/m²]rF [%]
00:01:24 10 980 0 7 0 47.2
00:04:24 10 980 0 6 0 47.4
00:07:23 10 981 0 7 0 47.4
00:10:24 10 981 0 10 0 47.5
00:13:26 10 981 0 3 0 47.6
00:16:24 10 981 0 4 0 47.6
00:19:24 10 982 0 2 0 47.7
00:22:22 11 981 0 2 0 47.7
00:25:24 10 981 0 7 0 47.8
00:28:24 10 981 0 10 0 44.2
00:31:25 10 981 0 6 0 47.9
00:34:24 10 981 0 13 0 47.9
00:37:24 10 981 0 3 0 47.9
00:40:24 10 981 0 7 0 48
00:43:26 10 982 0 5 0 48
00:46:24 10 981 0 6 0 48.1
00:49:23 10 981 0 1 0 48.1
00:52:23 10 981 0 9 0 48.3
00:55:24 10 982 0 1 0 48.4
00:58:24 10 981 0 8 0 48.5
01:01:25 10 981 0 5 0 48.5
01:04:23 10 981 0 4 0 48.5
01:07:24 10 981 0 4 0 48.6
01:10:24 10 981 0 7 0 48.7
01:13:23 10 981 0 8 0 48.7
01:16:24 10 981 0 4 0 48.8
01:19:24 10 981 0 5 0 48.7
01:22:24 10 982 0 5 0 48.8
01:25:25 10 982 0 3 0 48.9
01:28:24 10 982 0 4 0 48.9
01:31:23 10 983 0 5 0 48.9
01:34:25 10 982 0 6 0 48.9
01:37:24 10 981 0 5 0 49
01:40:24 10 982 0 5 0 49
01:43:25 10 982 0 5 0 48.9
01:46:24 10 983 0 5 0 48.9
01:49:24 10 982 0 5 0 49
01:52:24 10 983 0 8 0 49.1
01:55:24 10 982 0 8 0 49.2
01:58:24 10 982 0 4 0 49.3
02:01:24 10 982 0 4 0 49.2
02:04:25 10 983 0 9 0 49.2
02:07:23 10 982 0 7 0 49.4
02:10:26 10 982 0 9 0 49.3
02:13:23 10 983 0 3 0 49.3
02:16:24 10 983 0 8 0 49.4
02:19:23 10 983 0 8 0 49.4
02:22:24 10 983 0 6 0 49.5
02:25:24 10 983 0 4 0 49.5
02:28:24 10 983 0 5 0 49.6
02:31:24 10 983 0 3 0 49.6
02:34:23 10 982 0 4 0 49.7
02:37:24 10 983 0 10 0 49.6
02:40:25 10 982 0 5 0 49.7
02:43:25 10 982 0 6 0 50
02:46:25 10 982 0 6 0 50
02:49:26 10 982 0 7 0 50.2
02:52:24 10 983 0 8 0 50.1
02:55:25 10 982 0 7 0 50
02:58:24 10 983 0 4 0 50
03:01:30 10 983 0 4 0 50.1
03:04:25 10 983 0 7 0 50.1
03:07:24 10 983 0 5 0 50.1
03:10:23 10 983 0 4 0 50.1
03:13:23 10 983 0 7 0 50.2
03:16:24 9 983 0 6 0 50.3
03:19:24 10 983 0 4 0 50.2
03:22:22 9 982 0 5 0 50.2
03:25:24 10 983 0 5 0 50.1
03:28:23 9 983 0 3 0 50.1
03:31:23 9 983 0 1 0 50.2
03:34:23 10 983 0 4 0 50.3
03:37:24 10 983 0 8 0 50.2
03:40:23 10 983 0 3 0 49.4
03:43:23 10 983 0 3 0 50.3
03:46:24 10 983 0 5 0 50.3
03:49:23 10 983 0 5 0 50.4
03:52:24 10 983 0 3 0 50.4
03:55:23 10 983 0 6 0 50.5
03:58:24 10 983 0 3 0 50.4
04:01:24 10 982 0 5 0 50.5
04:04:24 10 983 0 9 0 50.7
04:07:24 10 983 0 4 0 50.6
04:10:24 10 983 0 4 0 50.8
04:13:24 10 983 0 3 0 50.8
04:16:24 10 983 0 6 0 50.9
04:19:24 10 982 0 5 0 50.9
04:22:24 10 983 0 4 0 51
04:25:14 10 983 0 5 0 40
04:28:25 10 982 0 5 0 50.9
04:31:24 10 983 3 6 0 51
04:34:24 10 983 6 6 0 50.8
04:37:25 10 983 10 2 0 50.9
04:40:24 10 983 11 5 0 50.9
04:43:23 10 983 14 4 0 50.9
04:46:24 10 983 23 3 0 51.1
04:49:24 10 983 27 6 0 51
04:52:24 10 982 42 5 0 51
04:55:25 10 983 51 3 0 50.9
04:58:24 10 983 64 4 0 50.9
05:01:24 10 983 74 9 0 51
05:04:24 10 983 83 7 0 50.9
05:07:26 10 983 90 4 0 50.6
05:10:24 10 983 99 4 0 50.9
05:13:25 10 983 106 1 0 50.9
05:16:26 10 984 112 5 0 50.9
05:19:25 10 984 120 3 0 50.9
05:22:25 10 983 125 4 0 51
05:25:25 10 983 130 3 0 25.3
05:28:24 10 983 135 4 0 51
05:31:23 10 983 141 7 0 51
05:34:25 10 983 145 3 0 51
05:37:24 10 984 150 2 0 51
05:40:25 10 984 154 3 0 50.9
05:43:25 10 983 159 6 0 51
05:46:24 10 983 162 5 0 51.1
05:49:28 10 983 162 3 0 51
05:52:24 10 983 164 5 0 51.2
05:55:24 10 983 167 3 0 51.3
05:58:25 10 984 169 4 0 51.2
06:01:24 10 983 169 5 0 51.1
06:04:25 10 983 170 6 0 51.1
06:07:24 10 984 171 1 0 51.2
06:10:24 10 984 173 7 0 51.2
06:13:25 10 984 175 13 0 51.2
06:16:25 10 983 174 14 0 51.2
06:19:26 10 984 175 5 0 51.1
06:22:25 10 984 178 7 0 51.1
06:25:27 10 984 186 5 0 51.2
06:28:26 10 984 188 8 0 51.1
06:31:25 10 983 182 14 0 51.1
06:34:26 10 984 181 5 0 51.1
06:37:24 10 983 181 5 0 51.1
06:40:27 11 984 181 13 0 51
06:43:24 11 984 181 12 0 51
06:46:25 11 984 181 6 0 51
06:49:25 11 984 182 8 0 51
06:52:24 11 984 182 10 0 51.1
06:55:26 11 984 183 12 0 51
06:58:26 11 984 183 15 0 51
07:01:25 11 984 183 6 0 51.1
07:04:23 11 984 183 8 0 51.1
07:07:25 11 984 183 11 0 51.2
07:10:24 11 984 183 8 0 51.3
07:13:24 11 984 184 14 0 51.3
07:16:23 12 984 185 9 0 51.5
07:19:23 12 984 184 6 0 51.4
07:22:25 12 984 184 5 0 51.5
07:25:24 12 984 185 9 0 51.5
07:28:26 14 984 185 10 0 51.4
07:31:23 15 984 185 6 0 51.4
07:34:24 16 984 186 7 0 51.4
07:37:25 16 984 186 12 0 51.5
07:40:24 16 984 185 8 0 51.5
07:43:24 16 984 160 8 0 49.3
07:46:25 16 984 186 6 0 50.5
07:49:25 16 984 186 6 0 50
07:52:25 16 984 186 4 0 50.2
07:55:25 16 984 187 10 0 50.5
07:58:25 16 984 186 17 0 50.5
08:01:26 16 984 187 19 0 50.6
08:04:24 15 984 187 7 0 50.6
08:07:25 13 984 187 5 0 50.6
08:10:26 13 984 187 8 0 50.6
08:13:26 13 984 188 13 0 50.6
08:16:24 13 985 187 7 0 50.6
08:19:25 13 984 186 9 0 50.6
08:22:25 13 984 187 9 0 50.5
08:25:28 13 984 188 10 0 50.6
08:28:26 13 985 188 18 0 50.5
08:31:27 13 984 187 5 0 50.5
08:34:25 13 984 188 5 0 50.5
08:37:17 13 984 188 8 0 40
08:40:26 13 985 189 9 0 50.5
08:43:26 13 984 190 8 0 50.6
08:46:26 13 985 190 10 0 50.6
08:49:25 13 984 189 7 0 50.7
08:52:25 13 984 190 9 0 50.6
08:55:26 13 984 191 15 0 50.6
08:58:25 13 985 192 6 0 50.6
09:01:26 13 984 193 6 0 50.6
09:04:26 13 984 194 3 0 50.8
09:07:26 13 984 196 7 0 50.7
09:10:25 13 985 196 7 0 50.7
09:13:25 14 984 199 6 0 50.7
09:16:26 14 985 201 15 0 50.7
09:19:25 14 985 201 17 0 50.6
09:22:25 14 985 205 4 0 50.6
09:25:26 13 985 203 17 0 50.6
09:28:25 14 984 202 7 0 50.7
09:31:26 14 985 205 12 0 50.7
09:34:26 14 985 210 6 0 50.7
09:37:26 14 985 206 13 0 50.6
09:40:24 13 985 196 4 0 50.7
09:43:25 13 985 187 9 0 50.6
09:46:25 13 985 187 3 0 50.6
09:49:26 13 986 204 10 0 50.7
09:52:25 14 985 204 7 0 50.6
09:55:25 14 985 203 7 0 50.7
09:58:25 14 985 208 9 0 50.6
10:01:26 14 985 214 10 0 50.6
10:04:26 14 985 209 13 0 50.7
10:07:26 14 986 208 10 0 50.6
10:10:25 14 985 205 4 0 50.6
10:13:26 14 985 207 6 0 50.6
10:16:26 14 985 204 11 0 50.5
10:19:24 14 985 204 6 0 50.6
10:22:26 14 985 206 15 0 50.5
10:25:25 14 984 206 6 0 50.5
10:28:26 14 985 205 11 0 50.5
10:31:26 14 985 212 17 0 50.5
10:34:26 14 986 215 14 0 50.6
10:37:25 15 985 216 6 0 50.5
10:40:25 15 985 210 8 0 50.5
10:43:25 15 985 218 13 0 50.5
10:46:25 15 985 222 16 0 50.5
10:49:25 15 985 217 27 0 50.5
10:52:25 15 985 215 11 0 50.4
10:55:24 15 986 218 13 0 50.4
10:58:25 15 985 211 13 0 50.4
11:01:26 15 985 208 14 0 50.3
11:04:26 15 985 194 9 0 50.3
11:07:26 15 985 207 20 0 50.3
11:10:26 15 985 207 7 0 50.3
11:13:24 15 985 198 3 0 50.2
11:16:24 15 985 214 9 0 50.3
11:19:25 15 985 211 5 0 50.3
11:22:23 15 986 211 6 0 50.2
11:25:25 15 985 218 15 0 50.2
11:28:24 15 985 219 5 0 50.2
11:31:25 15 985 221 13 0 50.2
11:34:25 16 985 215 11 0 50.2
11:37:25 15 986 212 10 0 50.2
11:40:25 15 985 215 24 0 50.2
11:43:27 16 985 221 6 0 50.1
11:46:26 16 985 218 6 0 50
11:49:25 16 986 223 9 0 50.1
11:52:26 16 985 226 11 0 50.1
11:55:24 16 985 225 5 0 50.2
11:58:26 16 986 224 10 0 50.1
12:01:28 16 985 228 6 0 50.1
12:04:25 16 985 227 8 0 50
12:07:27 16 985 225 10 0 50.1
12:10:27 16 985 226 8 0 50
12:13:27 17 985 229 13 0 49.9
12:16:26 16 985 226 9 0 49.9
12:19:25 17 985 228 8 0 50.1
12:22:26 17 986 226 12 0 50
12:25:26 17 986 227 8 0 50
12:28:26 17 986 224 10 0 50
12:31:25 17 985 224 5 0 50
12:34:24 17 985 223 7 0 50.1
12:37:24 17 985 230 7 0 50
12:40:25 16 985 225 4 0 50
12:43:26 16 985 226 11 0 50
12:46:25 16 985 224 7 0 50
12:49:25 16 986 220 7 0 50
12:52:26 16 985 212 23 0 50
12:55:24 16 984 213 2 0 50.1
12:58:26 16 985 222 9 0 50
13:01:25 16 985 224 6 0 50.1
13:04:26 16 985 225 13 0 50
13:07:25 16 985 232 19 0 50.1
13:10:25 17 984 232 17 0 50
13:13:24 17 985 227 6 0 49.9
13:16:26 17 985 227 6 0 49.8
13:19:26 18 985 228 2 0 49.8
13:22:24 17 985 223 5 0 49.9
13:25:25 17 985 226 9 0 49.9
13:28:25 17 985 230 16 0 49.9
13:31:25 17 985 230 7 0 49.9
13:34:25 17 986 225 12 0 49.8
13:37:25 17 985 225 10 0 49.9
13:40:27 17 985 232 9 0 49.8
13:43:24 17 986 237 8 0 49.7
13:46:26 18 985 231 9 0 49.7
13:49:25 17 985 232 10 0 49.7

Letzte Änderung : 29-Nov-2019
Copyright Jens Köhler, Wolfsburg, Obere Dorfstraße 10d